Location: *
(46.3500°N, 10.9000°E)
Time: 22:22:40
(UTC+00:00)

Explorer 7 - Pass Details

Date: 27 April 2021
Orbit: 484 x 677 km, 50.3° (Epoch: 05 May)

Event Time Altitude Azimuth Distance (km) Brightness Sun altitude
Rises 16:04:43 0° 217° (SW) 2,545 10.8 22.0°
Reaches altitude 10° 16:06:58 10° 208° (SSW) 1,681 9.8 21.6°
Maximum altitude 16:10:24 33° 143° (SE) 862 7.7 21.0°
Drops below altitude 10° 16:14:00 10° 78° (ENE) 1,758 8.9 20.4°
Sets 16:16:24 0° 69° (ENE) 2,683 9.8 20.0°
